* Astronomy

Members Login
Username 
 
Password 
    Remember Me  
Post Info TOPIC: Asteroid 2010 PU75


L

Posts: 131433
Date:
Asteroid 2010 PU75
Permalink  
 


Orbital elements:
2010 PU75
Epoch 2011 Aug. 27.0 TT = JDT 2455800.5                 MPC
M 353.14935              (2000.0)            P               Q
n   0.00136257     Peri.  250.86657     +0.84854075     +0.50689155
a  80.5804486      Node    78.41835     -0.40829219     +0.80970607
e   0.5455067      Incl.    8.91346     -0.33656512     +0.29569753
P 723              H    5.6           G   0.15           U   6

MPEC 2011 - S78



__________________


L

Posts: 131433
Date:
Permalink  
 

H: 5.3
Diameter: 200 - 450 km



__________________


L

Posts: 131433
Date:
Permalink  
 

Orbital elements:
2010 PU75
Epoch 2010 Aug. 12.0 TT = JDT 2455420.5 MPC
M 0.02137 (2000.0) P Q
n 0.00345082 Peri. 215.55989 +0.49572413 +0.85021876
a 43.3698692 Node 84.76896 -0.74998723 +0.52194708
e 0.0781153 Incl. 10.24752 -0.43792321 +0.06855154
P 286 H 5.3 G 0.15
From 6 observations 2010 Aug. 6-18.

MPEC 2010 - Q11


__________________
Page 1 of 1  sorted by
Quick Reply

Please log in to post quick replies.



Create your own FREE Forum
Report Abuse
Powered by ActiveBoard